Beijing Capital International Airport

Airport
ICAO code: 
ZBAA
IATA Code: 
PEK
Summary
ICAO Region: 
APAC
Territory: 
Location: 
Chaoyang District, Beijing
Serving: 
Beijing
Elevation: 
116 ft
Coordinates: 
Aerial View: 
40° 4' 31.408" N, 116° 35' 31.686" E
Metar
Observation
ZBAA 160930Z 17002MPS CAVOK M02/M17 Q1028 NOSIG
Station
Beijing
Date/Time
2022-01-16 09:30:00
Wind direction
170°
Lowest cloud amount
clouds and visibility OK
Temperature
-2°C
Dew point
-17°C
Humidity
30%
QNH
1028 hPa
Weather condition
n/a

Description

International airport serving the city of Beijing.

Climatology

Within the Köppen Climate Classification System, ((Koppen climate classification Cwa)) this climate type generally has warm and humid summers with mild winters. Its extent is from 30 to 50° of latitude mainly on the eastern and western borders of most continents. During the winter, the main weather feature is the mid-latitude cyclone. Convective thunderstorms provide precipitation in the summer months.

Runways

Designator Length Width Surface Rops
18R/36L 3200 50 ASP Yes/Yes
18L/36R 3800 60 ASP Yes/Yes
1/19 3962 60 concrete Yes/Yes
Airport map: 
Aerial View: 

SKYbrary Partners:

Safety knowledge contributed by: